星链-36367(STARLINK-36367)

导读 | 豆包AI

STARLINK-36367是美国星链星座下的一颗卫星,于2026年1月30日发射。星链计划是SpaceX打造的全球卫星互联网项目,通过部署数千颗低轨卫星,为全球偏远地区、海洋等场景提供高速互联网接入服务,这颗卫星入轨后将进一步扩充星链星座的服务覆盖能力与网络容量,助力其全球互联网络的稳定运行。

基本信息
目录编号:
67629
目录名称:
STARLINK-36367
国际标识:
2026-020N
轨道中心:
EARTH
卫星名称:
星链-36367
卫星全名:
星链-36367(STARLINK-36367)
卫星状态:
在轨 (已飞行64 天)
发射日期:
2026-01-30 UTC
国别 :
美国 (US)
星等 :
--
轨道信息
数据来源 国际轨道数据
星历时间: 2026-04-04T02:41:34+0800
8小时前
查看轨道信息
半长轴: 6858.615km
偏心率: 0.0002774
轨道倾角: 43.002°
近地点辐角 57.799°
升交点赤经 357.828°
平近点角 302.313°
近地点: 478.575km
远地点: 482.381km
周期: 94.214分钟
每日圈数: 15.284392
详细信息
固有亮度:
5
最大亮度:
2.5
卫星平台:
Starlink V1.0
覆盖范围:
全球
运营商:
太空探索技术公司
运营商所在国:
美国
制造商(研发单位):
太空探索技术公司
制造商所在国:
美国
使用方式:
暂无
卫星简介
Starlink 计划是 SpaceX 推出的全球卫星互联网项目,通过发射低轨道卫星,为全球尤其是偏远地区提供高速、低延迟的互联网服务。自 2019 年起,Starlink 已部署数千颗卫星,旨在缩小全球数字鸿沟,推动互联网普及。该项目还为军事、航空等行业提供通信支持,带来广泛经济效益。
2D轨道图
3D轨道图
轨道高度分析图
轨道倾角分析图
轨道综合分析图
查看轨道综合分析图